FW1440 Weather Reports


time (UTC)temp
C
wind
direction
speed
KPH
gust
KPH
rain 1hr
cm
rain 24hr
cm
rain mn
cm
humidity
%
barometer
mb
20260504001810 21 277 1.6 6.4 0.00 0.00 0.00 52 1008.3
20260504000316 21 221 1.6 4.8 0.00 0.00 0.00 52 1008.4
20260503235311 21 197 3.2 11.3 0.00 0.00 0.00 50 1008.7
20260503234810 21 133 3.2 6.4 0.00 0.00 0.00 45 1008.7
20260503234308 22 167 3.2 11.3 0.00 0.00 0.00 46 1008.8
20260503233808 22 193 3.2 11.3 0.00 0.00 0.00 46 1008.8
20260503233306 22 220 1.6 6.4 0.00 0.00 0.00 44 1008.8
20260503232806 22 151 3.2 6.4 0.00 0.00 0.00 44 1008.9
20260503232306 22 182 3.2 6.4 0.00 0.00 0.00 45 1009.0
20260503231804 22 168 1.6 6.4 0.00 0.00 0.00 45 1009.0
20260503231303 22 185 1.6 4.8 0.00 0.00 0.00 49 1009.1
20260503230800 22 230 1.6 4.8 0.00 0.00 0.00 50 1009.2
20260503230257 22 164 1.6 4.8 0.00 0.00 0.00 48 1009.2
20260503225758 21 164 1.6 4.8 0.00 0.00 0.00 48 1009.2
20260503225258 22 166 1.6 4.8 0.00 0.00 0.00 52 1009.3
20260503224758 21 166 3.2 8.0 0.00 0.00 0.00 53 1009.3
20260503224258 21 120 3.2 8.0 0.00 0.00 0.00 53 1009.4
20260503223758 21 130 1.6 4.8 0.00 0.00 0.00 50 1009.6
20260503223258 21 162 1.6 6.4 0.00 0.00 0.00 52 1009.7
20260503222758 21 160 3.2 6.4 0.00 0.00 0.00 54 1009.7
20260503222258 21 136 3.2 6.4 0.00 0.00 0.00 53 1009.7
20260503221758 21 145 1.6 6.4 0.00 0.00 0.00 49 1009.8
20260503221257 22 66 1.6 4.8 0.00 0.00 0.00 48 1009.8
20260503220754 22 168 1.6 4.8 0.00 0.00 0.00 52 1009.9
20260503220255 22 142 1.6 4.8 0.00 0.00 0.00 52 1010.0
20260503215754 22 152 1.6 4.8 0.00 0.00 0.00 53 1010.0
20260503215255 21 152 3.2 6.4 0.00 0.00 0.00 54 1010.0
20260503214251 22 148 3.2 9.7 0.00 0.00 0.00 50 1010.2
20260503213752 23 227 3.2 6.4 0.00 0.00 0.00 52 1010.3
20260503212748 23 191 1.6 6.4 0.00 0.00 0.00 54 1010.3
20260503212246 22 181 1.6 4.8 0.00 0.00 0.00 54 1010.3
20260503211747 22 226 3.2 8.0 0.00 0.00 0.00 58 1010.3
20260503211246 21 197 3.2 8.0 0.00 0.00 0.00 57 1010.5
20260503210744 20 211 3.2 9.7 0.00 0.00 0.00 60 1010.5
20260503210243 20 161 3.2 9.7 0.00 0.00 0.00 56 1010.6
20260503205737 21 172 3.2 9.7 0.00 0.00 0.00 54 1010.7
20260503205231 21 133 1.6 4.8 0.00 0.00 0.00 56 1010.7
20260503204732 22 185 1.6 6.4 0.00 0.00 0.00 53 1010.8
20260503204232 22 200 1.6 6.4 0.00 0.00 0.00 57 1010.8
20260503203730 22 154 1.6 4.8 0.00 0.00 0.00 55 1010.9
20260503203230 22 170 1.6 4.8 0.00 0.00 0.00 55 1011.0
20260503202730 22 147 1.6 3.2 0.00 0.00 0.00 57 1011.2
20260503201728 21 152 1.6 4.8 0.00 0.00 0.00 55 1011.3
20260503201228 21 155 1.6 6.4 0.00 0.00 0.00 61 1011.3
20260503195725 22 272 1.6 4.8 0.00 0.00 0.00 58 1011.4
20260503195226 22 354 1.6 3.2 0.00 0.00 0.00 60 1011.4
20260503194726 21 1 1.6 4.8 0.00 0.00 0.00 62 1011.4
20260503194226 21 141 1.6 4.8 0.00 0.00 0.00 62 1011.4
20260503193724 21 145 1.6 4.8 0.00 0.00 0.00 58 1011.5
20260503193223 21 81 1.6 4.8 0.00 0.00 0.00 61 1011.5
20260503191723 22 176 3.2 6.4 0.00 0.00 0.00 55 1011.5
20260503191222 22 247 3.2 6.4 0.00 0.00 0.00 56 1011.5
20260503190721 22 247 3.2 6.4 0.00 0.00 0.00 55 1011.6
20260503190222 22 248 3.2 6.4 0.00 0.00 0.00 56 1011.7
20260503185719 22 199 3.2 6.4 0.00 0.00 0.00 56 1011.8
20260503185220 22 203 3.2 4.8 0.00 0.00 0.00 55 1011.8
20260503184719 22 225 3.2 6.4 0.00 0.00 0.00 56 1011.8
20260503183718 21 232 1.6 6.4 0.00 0.00 0.00 60 1012.0
20260503183217 21 206 1.6 4.8 0.00 0.00 0.00 60 1012.1
20260503182721 20 195 1.6 4.8 0.00 0.00 0.00 65 1012.1
20260503182216 20 175 3.2 6.4 0.00 0.00 0.00 63 1012.2
20260503181716 19 174 3.2 6.4 0.00 0.00 0.00 61 1012.1
20260503180721 20 148 3.2 6.4 0.00 0.00 0.00 63 1012.1
20260503180216 20 143 1.6 4.8 0.00 0.00 0.00 59 1012.2
20260503175713 21 153 1.6 4.8 0.00 0.00 0.00 58 1012.3
20260503175213 21 272 1.6 4.8 0.00 0.00 0.00 58 1012.2
20260503174713 21 256 1.6 4.8 0.00 0.00 0.00 58 1012.3
20260503174214 21 250 1.6 4.8 0.00 0.00 0.00 60 1012.3
20260503173713 20 266 1.6 4.8 0.00 0.00 0.00 59 1012.3
20260503172713 20 256 1.6 6.4 0.00 0.00 0.00 59 1012.4
20260503172214 20 278 1.6 3.2 0.00 0.00 0.00 60 1012.5
20260503171708 20 285 0.0 3.2 0.00 0.00 0.00 61 1012.5
20260503171208 20 285 1.6 3.2 0.00 0.00 0.00 63 1012.6
20260503170708 20 296 1.6 3.2 0.00 0.00 0.00 63 1012.6
20260503170206 20 296 1.6 3.2 0.00 0.00 0.00 63 1012.6
20260503150203 15 101 0.0 3.2 0.00 0.00 0.00 76 1013.1
20260503140146 13 331 0.0 0.0 0.00 0.00 0.00 82 1012.9
20260503131133 11 49 0.0 0.0 0.00 0.00 0.00 84 1012.6
20260503130630 11 49 0.0 0.0 0.00 0.00 0.00 84 1012.4
20260503130129 11 49 0.0 0.0 0.00 0.00 0.00 84 1012.4
20260503110537 12 49 1.6 3.2 0.00 0.00 0.00 78 1012.7
20260503090500 12 54 1.6 4.8 0.00 0.00 0.00 75 1012.5
20260503081449 11 59 1.6 3.2 0.00 0.00 0.00 79 1012.5
20260503080949 11 59 0.0 3.2 0.00 0.00 0.00 78 1012.5
20260503080447 11 59 0.0 3.2 0.00 0.00 0.00 77 1012.5
20260503072940 12 59 0.0 0.0 0.00 0.00 0.00 75 1012.4
20260503072442 12 59 0.0 0.0 0.00 0.00 0.00 74 1012.4
20260503071938 12 59 0.0 0.0 0.00 0.00 0.00 74 1012.4
20260503071439 12 59 0.0 1.6 0.00 0.00 0.00 73 1012.4
20260503054927 15 59 1.6 3.2 0.00 0.00 0.00 65 1012.2
20260503053922 15 59 0.0 3.2 0.00 0.00 0.00 64 1012.2
20260503052924 15 59 0.0 0.0 0.00 0.00 0.00 64 1012.2
20260503052423 15 59 0.0 3.2 0.00 0.00 0.00 63 1012.2
20260503051922 15 59 1.6 3.2 0.00 0.00 0.00 62 1012.2
20260503050919 15 59 0.0 4.8 0.00 0.00 0.00 61 1012.2
20260503050420 15 59 1.6 4.8 0.00 0.00 0.00 61 1012.2
20260503045920 15 25 0.0 4.8 0.00 0.00 0.00 60 1012.2
20260503045414 15 8 1.6 9.7 0.00 0.00 0.00 60 1012.1
20260503044918 15 11 1.6 9.7 0.00 0.00 0.00 61 1012.1
20260503044416 15 22 0.0 6.4 0.00 0.00 0.00 61 1012.2
20260503043916 15 9 0.0 3.2 0.00 0.00 0.00 61 1012.1
20260503043413 16 9 0.0 3.2 0.00 0.00 0.00 60 1012.1
20260503042914 16 9 1.6 3.2 0.00 0.00 0.00 60 1012.0
20260503042413 16 9 1.6 4.8 0.00 0.00 0.00 59 1012.0
20260503041911 16 9 0.0 4.8 0.00 0.00 0.00 59 1012.0
20260503041411 16 314 0.0 3.2 0.00 0.00 0.00 59 1012.0
20260503040911 16 314 1.6 3.2 0.00 0.00 0.00 58 1011.9
20260503040409 16 314 0.0 3.2 0.00 0.00 0.00 57 1011.8
20260503035908 17 314 0.0 3.2 0.00 0.00 0.00 55 1011.7
20260503034858 17 5 1.6 6.4 0.00 0.00 0.00 55 1011.7
20260503034353 17 51 1.6 4.8 0.00 0.00 0.00 55 1011.6
20260503033847 17 86 1.6 4.8 0.00 0.00 0.00 56 1011.6
20260503033347 17 81 1.6 4.8 0.00 0.00 0.00 55 1011.5
20260503032845 17 81 1.6 4.8 0.00 0.00 0.00 55 1011.4
20260503031845 17 103 1.6 4.8 0.00 0.00 0.00 54 1011.4
20260503031346 17 104 1.6 4.8 0.00 0.00 0.00 55 1011.3
20260503030345 17 87 1.6 4.8 0.00 0.00 0.00 54 1011.3
20260503025846 17 182 1.6 3.2 0.00 0.00 0.00 54 1011.3
20260503025345 17 200 0.0 3.2 0.00 0.00 0.00 55 1011.3
20260503024845 18 200 1.6 3.2 0.00 0.00 0.00 54 1011.2
20260503024350 18 200 1.6 4.8 0.00 0.00 0.00 53 1011.3
20260503023845 18 200 0.0 4.8 0.00 0.00 0.00 54 1011.3
20260503023343 18 105 0.0 3.2 0.00 0.00 0.00 53 1011.3
20260503022339 18 103 1.6 3.2 0.00 0.00 0.00 54 1011.3
20260503021837 18 103 0.0 3.2 0.00 0.00 0.00 55 1011.3
20260503021337 18 103 0.0 3.2 0.00 0.00 0.00 55 1011.3
20260503020835 18 103 0.0 3.2 0.00 0.00 0.00 54 1011.3
20260503020335 18 104 0.0 3.2 0.00 0.00 0.00 54 1011.4
20260503015833 18 103 0.0 3.2 0.00 0.00 0.00 53 1011.4
20260503015333 18 104 1.6 4.8 0.00 0.00 0.00 54 1011.5
20260503014833 18 104 1.6 4.8 0.00 0.00 0.00 54 1011.5
20260503014330 18 104 1.6 8.0 0.00 0.00 0.00 53 1011.5
20260503013330 19 151 1.6 6.4 0.00 0.00 0.00 53 1011.6
20260503012831 19 176 1.6 6.4 0.00 0.00 0.00 51 1011.6
20260503012326 19 35 3.2 8.0 0.00 0.00 0.00 53 1011.8
20260503011820 19 342 1.6 8.0 0.00 0.00 0.00 51 1011.8
20260503011321 20 294 1.6 4.8 0.00 0.00 0.00 52 1011.8
20260503010823 19 178 0.0 3.2 0.00 0.00 0.00 54 1011.8
20260503010320 19 178 1.6 3.2 0.00 0.00 0.00 54 1011.8
20260503005819 19 178 1.6 3.2 0.00 0.00 0.00 54 1011.9
20260503005317 19 178 1.6 3.2 0.00 0.00 0.00 54 1011.9
20260503004817 19 178 1.6 4.8 0.00 0.00 0.00 55 1011.9
20260503004316 19 178 1.6 4.8 0.00 0.00 0.00 53 1012.0
20260503003816 19 178 1.6 4.8 0.00 0.00 0.00 57 1012.0
20260503003317 19 153 1.6 4.8 0.00 0.00 0.00 57 1012.1
20260503002817 19 149 1.6 4.8 0.00 0.00 0.00 58 1012.1
20260503002317 19 146 1.6 4.8 0.00 0.00 0.00 58 1012.0